Weather History for Hettinger, ND

Change the Weather History Date:

Friday, January 31, 2014

  Actual Average Record
Temperature  
Mean Temperature 4 °F -  
Max Temperature 20 °F 29 °F 48 °F (2012)
Min Temperature -12 °F 7 °F -18 °F (2002)
Degree Days  
Heating Degree Days 61 47  
Month to date heating degree days 1467 1499  
Since 1 July heating degree days 5189 5076  
Moisture  
Dew Point 1 °F    
Average Humidity 78    
Maximum Humidity 91    
Minimum Humidity 67    
Precipitation  
Precipitation T in 0.01 in 0.01 in (2011)
Month to date precipitation 0.14 0.31  
Year to date precipitation 0.14 0.31  
Sea Level Pressure  
Sea Level Pressure 29.96 in    
Wind  
Wind Speed 11 mph (WSW)    
Max Wind Speed 24 mph    
Max Gust Speed 30 mph    
Visibility 10 miles    
Events Snow    
T = Trace of Precipitation, MM = Missing Value Source: NWS Daily Summary

Daily Weather History Graph

Daily Weather History Graph

Search for Another Location

Airport:

Trip Planner

Search our weather history database for the weather conditions in past years. The results will help you decide how hot, cold, wet, or windy it might be!

Date:

Astronomy

Jan. 31, 2014 Rise Set
Actual Time 7:14 AM MST 4:54 PM MST
Civil Twilight 6:42 AM MST 5:26 PM MST
Nautical Twilight 6:06 AM MST 6:02 PM MST
Astronomical Twilight 5:31 AM MST 6:37 PM MST
Moon 7:19 AM MST (1/31) 6:28 PM MST (1/31)
Length of Visible Light 10h 44m
Length of Day
9h 40m
New Moon, 1% of the Moon is Illuminated
Jan 31
New Moon
Feb 6
First Quarter
Feb 14
Full
Feb 22
Last Quarter
Mar 1
New

Hourly Weather History & Observations

Time (MST) Temp. Windchill Dew Point Humidity Pressure Visibility Wind Dir Wind Speed Gust Speed Precip Events Conditions
12:53 AM 1.0 °F -15.8 °F -4.0 °F 79% 30.07 in 10.0 mi West 11.5 mph - N/A   Clear
1:53 AM -0.9 °F -17.4 °F -6.0 °F 79% 30.07 in 10.0 mi WSW 10.4 mph - N/A   Clear
2:53 AM -5.1 °F -15.8 °F -9.0 °F 83% 30.08 in 10.0 mi SSW 4.6 mph - N/A   Clear
3:53 AM -7.1 °F -22.8 °F -11.0 °F 83% 30.08 in 10.0 mi West 8.1 mph - N/A   Clear
4:53 AM -9.9 °F -19.2 °F -14.1 °F 82% 30.08 in 10.0 mi NW 3.5 mph - N/A   Partly Cloudy
5:53 AM -9.0 °F - -13.0 °F 83% 30.06 in 10.0 mi Calm Calm - N/A   Clear
6:53 AM -6.0 °F -14.7 °F -11.0 °F 79% 30.06 in 10.0 mi South 3.5 mph - N/A   Clear
7:53 AM -6.0 °F - -9.9 °F 83% 30.04 in 3.0 mi Calm Calm - N/A   Clear
8:53 AM -0.0 °F -7.9 °F -2.0 °F 91% 30.01 in 10.0 mi SSW 3.5 mph - N/A   Clear
9:53 AM 3.0 °F -8.0 °F -0.9 °F 84% 30.00 in 10.0 mi SSE 5.8 mph - N/A   Clear
10:53 AM 10.0 °F -6.5 °F 5.0 °F 80% 29.96 in 10.0 mi SSW 15.0 mph - N/A   Mostly Cloudy
11:53 AM 14.0 °F -2.0 °F 8.1 °F 77% 29.90 in 10.0 mi SSW 16.1 mph - N/A   Mostly Cloudy
12:53 PM 17.1 °F 2.0 °F 9.0 °F 71% 29.86 in 10.0 mi SSW 16.1 mph - N/A   Scattered Clouds
1:53 PM 17.1 °F 5.0 °F 10.0 °F 74% 29.85 in 10.0 mi SSW 10.4 mph - N/A   Mostly Cloudy
2:53 PM 19.0 °F 6.8 °F 10.9 °F 71% 29.84 in 10.0 mi SW 11.5 mph - N/A   Overcast
3:53 PM 18.0 °F 4.2 °F 10.0 °F 71% 29.84 in 10.0 mi WSW 13.8 mph - N/A   Mostly Cloudy
4:53 PM 18.0 °F 4.8 °F 10.9 °F 74% 29.86 in 10.0 mi West 12.7 mph - N/A   Mostly Cloudy
5:53 PM 15.1 °F 1.1 °F 8.1 °F 74% 29.90 in 10.0 mi WNW 12.7 mph - N/A   Clear
6:53 PM 10.9 °F -3.4 °F 6.1 °F 81% 29.93 in 10.0 mi WSW 11.5 mph - N/A   Clear
7:53 PM 10.0 °F -4.5 °F 5.0 °F 80% 29.95 in 10.0 mi West 11.5 mph - N/A   Clear
8:53 PM 10.9 °F -7.0 °F 5.0 °F 77% 29.96 in 10.0 mi NW 18.4 mph 27.6 mph N/A   Clear
9:53 PM 10.0 °F -8.1 °F 3.9 °F 76% 29.98 in 10.0 mi WNW 18.4 mph - N/A   Partly Cloudy
10:08 PM 10.0 °F -7.6 °F 3.9 °F 76% 29.82 in 10.0 mi WNW 17.3 mph - N/A   Mostly Cloudy
10:44 PM 9.0 °F -11.0 °F 3.0 °F 77% 29.82 in 10.0 mi WNW 21.9 mph 27.6 mph N/A   Scattered Clouds
10:53 PM 10.0 °F -8.6 °F 3.0 °F 73% 29.99 in 10.0 mi WNW 19.6 mph - N/A   Scattered Clouds
11:01 PM 10.0 °F -8.1 °F 3.0 °F 73% 29.83 in 10.0 mi WNW 18.4 mph 29.9 mph N/A   Mostly Cloudy
11:53 PM 10.0 °F -9.1 °F 3.0 °F 73% 30.01 in 8.0 mi WNW 20.7 mph 27.6 mph 0.00 in Snow Light Snow